Time,TemperatureF,DewpointF,PressureIn,WindDirection,WindDirectionDegrees,WindSpeedMPH,WindSpeedGustMPH,Humidity,HourlyPrecipIn,Conditions,Clouds,dailyrainin,SoftwareType,DateUTC
2013-09-12 00:04:00,66.9,40.3,29.04,WNW,294,3.0,8.0,30,0.00,,,0.00,meteohub,2013-09-12 05:04:00,
2013-09-12 00:10:00,66.7,40.3,29.04,West,275,3.0,8.0,30,0.00,,,0.00,meteohub,2013-09-12 05:10:00,
2013-09-12 00:15:00,66.6,40.3,29.04,WNW,301,6.0,8.0,30,0.00,,,0.00,meteohub,2013-09-12 05:15:00,
2013-09-12 00:20:00,66.2,40.3,29.04,WNW,293,5.0,6.0,30,0.00,,,0.00,meteohub,2013-09-12 05:20:00,
2013-09-12 00:25:00,66.0,40.3,29.07,West,274,4.0,8.0,30,0.00,,,0.00,meteohub,2013-09-12 05:25:00,
2013-09-12 00:30:00,65.8,40.3,29.07,West,270,5.0,8.0,30,0.00,,,0.00,meteohub,2013-09-12 05:30:00,
2013-09-12 00:36:00,65.5,40.3,29.07,WNW,294,4.0,8.0,30,0.00,,,0.00,meteohub,2013-09-12 05:36:00,
2013-09-12 00:41:00,65.1,40.3,29.07,NNW,337,4.0,6.0,30,0.00,,,0.00,meteohub,2013-09-12 05:41:00,
2013-09-12 00:46:00,64.9,40.3,29.07,NNW,345,4.0,6.0,30,0.00,,,0.00,meteohub,2013-09-12 05:46:00,
2013-09-12 00:51:00,64.8,40.3,29.07,NW,305,4.0,7.0,30,0.00,,,0.00,meteohub,2013-09-12 05:51:00,
2013-09-12 00:56:00,64.6,40.3,29.07,WSW,258,4.0,8.0,30,0.00,,,0.00,meteohub,2013-09-12 05:56:00,
2013-09-12 01:02:00,64.4,41.0,29.07,WNW,302,6.0,10.0,31,0.00,,,0.00,meteohub,2013-09-12 06:02:00,
2013-09-12 01:07:00,64.4,41.0,29.07,NNW,328,3.0,10.0,31,0.00,,,0.00,meteohub,2013-09-12 06:07:00,
2013-09-12 01:12:00,64.2,41.0,29.07,West,273,4.0,10.0,31,0.00,,,0.00,meteohub,2013-09-12 06:12:00,
2013-09-12 01:17:00,64.0,41.0,29.07,WNW,282,4.0,8.0,31,0.00,,,0.00,meteohub,2013-09-12 06:17:00,
2013-09-12 01:22:00,63.9,41.0,29.07,NW,321,3.0,8.0,31,0.00,,,0.00,meteohub,2013-09-12 06:22:00,
2013-09-12 01:27:00,63.9,41.0,29.07,WNW,291,6.0,8.0,31,0.00,,,0.00,meteohub,2013-09-12 06:27:00,
2013-09-12 01:32:00,63.5,41.0,29.07,WSW,255,4.0,8.0,31,0.00,,,0.00,meteohub,2013-09-12 06:32:00,
2013-09-12 01:37:00,63.5,41.0,29.07,North,2,6.0,8.0,31,0.00,,,0.00,meteohub,2013-09-12 06:37:00,
2013-09-12 01:42:00,63.3,41.0,29.07,NW,307,5.0,8.0,31,0.00,,,0.00,meteohub,2013-09-12 06:42:00,
2013-09-12 01:47:00,63.1,41.0,29.07,WNW,301,6.0,8.0,31,0.00,,,0.00,meteohub,2013-09-12 06:47:00,
2013-09-12 01:52:00,63.0,41.0,29.10,North,357,8.0,8.0,31,0.00,,,0.00,meteohub,2013-09-12 06:52:00,
2013-09-12 01:57:00,62.8,41.0,29.10,West,281,5.0,8.0,31,0.00,,,0.00,meteohub,2013-09-12 06:57:00,
2013-09-12 02:02:00,62.6,41.0,29.10,WNW,283,3.0,8.0,31,0.00,,,0.00,meteohub,2013-09-12 07:02:00,
2013-09-12 02:07:00,62.4,41.0,29.10,West,281,3.0,8.0,31,0.00,,,0.00,meteohub,2013-09-12 07:07:00,
2013-09-12 02:12:00,62.2,41.0,29.10,NW,305,3.0,8.0,31,0.00,,,0.00,meteohub,2013-09-12 07:12:00,
2013-09-12 02:17:00,62.1,41.0,29.10,West,274,6.0,8.0,31,0.00,,,0.00,meteohub,2013-09-12 07:17:00,
2013-09-12 02:22:00,61.9,41.0,29.10,WNW,294,3.0,8.0,31,0.00,,,0.00,meteohub,2013-09-12 07:22:00,
2013-09-12 02:27:00,61.7,41.0,29.10,West,278,3.0,8.0,31,0.00,,,0.00,meteohub,2013-09-12 07:27:00,
2013-09-12 02:32:00,61.5,41.0,29.10,West,275,7.0,8.0,31,0.00,,,0.00,meteohub,2013-09-12 07:32:00,
2013-09-12 02:37:00,61.3,41.0,29.10,West,273,3.0,9.0,31,0.00,,,0.00,meteohub,2013-09-12 07:37:00,
2013-09-12 02:42:00,61.2,41.0,29.10,West,277,4.0,9.0,31,0.00,,,0.00,meteohub,2013-09-12 07:42:00,
2013-09-12 02:47:00,61.0,41.0,29.10,WNW,292,3.0,9.0,31,0.00,,,0.00,meteohub,2013-09-12 07:47:00,
2013-09-12 02:52:00,60.6,41.0,29.10,WNW,283,5.0,8.0,31,0.00,,,0.00,meteohub,2013-09-12 07:52:00,
2013-09-12 02:57:00,60.4,41.0,29.10,WNW,283,0.0,8.0,31,0.00,,,0.00,meteohub,2013-09-12 07:57:00,
2013-09-12 03:02:00,60.3,41.0,29.10,WNW,282,5.0,7.0,31,0.00,,,0.00,meteohub,2013-09-12 08:02:00,
2013-09-12 03:07:00,59.9,41.0,29.10,NNW,333,0.0,7.0,31,0.00,,,0.00,meteohub,2013-09-12 08:07:00,
2013-09-12 03:12:00,59.7,41.0,29.10,WNW,298,4.0,6.0,31,0.00,,,0.00,meteohub,2013-09-12 08:12:00,
2013-09-12 03:17:00,59.5,41.0,29.10,WNW,287,5.0,6.0,31,0.00,,,0.00,meteohub,2013-09-12 08:17:00,
2013-09-12 03:22:00,59.4,41.0,29.10,NW,320,5.0,6.0,31,0.00,,,0.00,meteohub,2013-09-12 08:22:00,
2013-09-12 03:27:00,59.2,41.0,29.10,NNW,328,0.0,6.0,31,0.00,,,0.00,meteohub,2013-09-12 08:27:00,
2013-09-12 03:32:00,58.8,41.0,29.10,West,275,4.0,6.0,31,0.00,,,0.00,meteohub,2013-09-12 08:32:00,
2013-09-12 03:37:00,58.8,41.0,29.10,NNE,20,3.0,6.0,31,0.00,,,0.00,meteohub,2013-09-12 08:37:00,
2013-09-12 03:42:00,58.6,41.0,29.10,West,270,4.0,5.0,31,0.00,,,0.00,meteohub,2013-09-12 08:42:00,
2013-09-12 03:47:00,58.5,41.0,29.10,NNW,328,2.0,6.0,31,0.00,,,0.00,meteohub,2013-09-12 08:47:00,
2013-09-12 03:52:00,58.3,41.0,29.10,WNW,294,0.0,6.0,31,0.00,,,0.00,meteohub,2013-09-12 08:52:00,
2013-09-12 03:57:00,58.1,41.0,29.10,WNW,303,0.0,6.0,31,0.00,,,0.00,meteohub,2013-09-12 08:57:00,
2013-09-12 04:02:00,57.9,41.0,29.10,NNW,327,0.0,5.0,31,0.00,,,0.00,meteohub,2013-09-12 09:02:00,
2013-09-12 04:07:00,57.6,41.0,29.13,NW,324,0.0,5.0,31,0.00,,,0.00,meteohub,2013-09-12 09:07:00,
2013-09-12 04:12:00,57.4,41.0,29.13,West,277,3.0,3.0,31,0.00,,,0.00,meteohub,2013-09-12 09:12:00,
2013-09-12 04:17:00,57.0,41.0,29.13,WNW,295,0.0,5.0,31,0.00,,,0.00,meteohub,2013-09-12 09:17:00,
2013-09-12 04:22:00,56.8,41.0,29.13,West,269,0.0,5.0,31,0.00,,,0.00,meteohub,2013-09-12 09:22:00,
2013-09-12 04:27:00,56.8,41.0,29.13,NNW,329,3.0,6.0,31,0.00,,,0.00,meteohub,2013-09-12 09:27:00,
2013-09-12 04:32:00,56.7,41.0,29.13,WNW,285,2.0,6.0,31,0.00,,,0.00,meteohub,2013-09-12 09:32:00,
2013-09-12 04:37:00,56.5,41.0,29.13,WNW,291,0.0,5.0,31,0.00,,,0.00,meteohub,2013-09-12 09:37:00,
2013-09-12 04:42:00,56.3,41.0,29.13,NNW,330,0.0,5.0,31,0.00,,,0.00,meteohub,2013-09-12 09:42:00,
2013-09-12 04:47:00,56.1,41.0,29.13,NW,321,0.0,2.0,31,0.00,,,0.00,meteohub,2013-09-12 09:47:00,
2013-09-12 04:52:00,55.9,41.0,29.13,WNW,300,0.0,2.0,31,0.00,,,0.00,meteohub,2013-09-12 09:52:00,
2013-09-12 04:57:00,55.8,41.0,29.13,West,275,0.0,3.0,31,0.00,,,0.00,meteohub,2013-09-12 09:57:00,
2013-09-12 05:02:00,55.6,41.0,29.13,West,278,4.0,4.0,31,0.00,,,0.00,meteohub,2013-09-12 10:02:00,
2013-09-12 05:07:00,55.4,41.0,29.13,WNW,290,0.0,4.0,31,0.00,,,0.00,meteohub,2013-09-12 10:07:00,
2013-09-12 05:12:00,55.4,41.0,29.13,NNW,342,0.0,4.0,31,0.00,,,0.00,meteohub,2013-09-12 10:12:00,
2013-09-12 05:17:00,55.2,41.0,29.13,North,0,0.0,5.0,31,0.00,,,0.00,meteohub,2013-09-12 10:17:00,
2013-09-12 05:22:00,55.2,41.0,29.13,WNW,302,0.0,4.0,31,0.00,,,0.00,meteohub,2013-09-12 10:22:00,
2013-09-12 05:27:00,55.0,41.0,29.13,WNW,302,0.0,4.0,31,0.00,,,0.00,meteohub,2013-09-12 10:27:00,
2013-09-12 05:32:00,55.0,41.0,29.13,West,276,0.0,4.0,31,0.00,,,0.00,meteohub,2013-09-12 10:32:00,
2013-09-12 05:37:00,54.9,41.0,29.13,West,271,0.0,0.0,31,0.00,,,0.00,meteohub,2013-09-12 10:37:00,
2013-09-12 05:42:00,54.7,41.0,29.13,West,271,0.0,0.0,31,0.00,,,0.00,meteohub,2013-09-12 10:42:00,
2013-09-12 05:47:00,54.5,41.0,29.13,WNW,293,0.0,0.0,31,0.00,,,0.00,meteohub,2013-09-12 10:47:00,
2013-09-12 05:52:00,54.3,41.0,29.13,WNW,291,3.0,0.0,31,0.00,,,0.00,meteohub,2013-09-12 10:52:00,
2013-09-12 05:57:00,54.1,41.0,29.13,WNW,291,0.0,4.0,31,0.00,,,0.00,meteohub,2013-09-12 10:57:00,
2013-09-12 06:02:00,54.0,41.0,29.13,West,275,0.0,4.0,31,0.00,,,0.00,meteohub,2013-09-12 11:02:00,
2013-09-12 06:07:00,54.0,41.0,29.16,WNW,296,0.0,4.0,31,0.00,,,0.00,meteohub,2013-09-12 11:07:00,
2013-09-12 06:12:00,53.8,41.0,29.16,WNW,293,0.0,4.0,31,0.00,,,0.00,meteohub,2013-09-12 11:12:00,
2013-09-12 06:17:00,53.8,41.0,29.16,WNW,293,0.0,4.0,31,0.00,,,0.00,meteohub,2013-09-12 11:17:00,
2013-09-12 06:22:00,53.6,41.0,29.16,WNW,293,0.0,4.0,31,0.00,,,0.00,meteohub,2013-09-12 11:22:00,
2013-09-12 06:27:00,53.6,41.0,29.16,WNW,293,0.0,0.0,31,0.00,,,0.00,meteohub,2013-09-12 11:27:00,
2013-09-12 06:32:00,53.4,41.5,29.16,NW,305,2.0,0.0,32,0.00,,,0.00,meteohub,2013-09-12 11:32:00,
2013-09-12 06:37:00,53.4,41.5,29.16,West,276,0.0,3.0,32,0.00,,,0.00,meteohub,2013-09-12 11:37:00,
2013-09-12 06:42:00,53.4,41.5,29.16,NW,305,4.0,4.0,32,0.00,,,0.00,meteohub,2013-09-12 11:42:00,
2013-09-12 06:47:00,53.4,41.5,29.16,WNW,294,3.0,6.0,32,0.00,,,0.00,meteohub,2013-09-12 11:47:00,
2013-09-12 06:52:00,53.4,41.5,29.16,WNW,294,0.0,6.0,32,0.00,,,0.00,meteohub,2013-09-12 11:52:00,
2013-09-12 06:57:00,53.4,41.5,29.16,WNW,296,4.0,6.0,32,0.00,,,0.00,meteohub,2013-09-12 11:57:00,
2013-09-12 07:02:00,53.6,41.5,29.16,NW,317,3.0,6.0,32,0.00,,,0.00,meteohub,2013-09-12 12:02:00,
2013-09-12 07:08:00,53.6,41.5,29.16,WNW,294,0.0,6.0,32,0.00,,,0.00,meteohub,2013-09-12 12:08:00,
2013-09-12 07:13:00,53.6,41.5,29.16,WNW,290,3.0,4.0,32,0.00,,,0.00,meteohub,2013-09-12 12:13:00,
2013-09-12 07:18:00,53.6,41.5,29.16,West,268,0.0,4.0,32,0.00,,,0.00,meteohub,2013-09-12 12:18:00,
2013-09-12 07:23:00,53.6,41.5,29.16,West,278,6.0,6.0,32,0.00,,,0.00,meteohub,2013-09-12 12:23:00,
2013-09-12 07:29:00,54.0,41.4,29.16,WNW,297,0.0,6.0,32,0.00,,,0.00,meteohub,2013-09-12 12:29:00,
2013-09-12 07:34:00,54.1,41.4,29.16,WNW,297,0.0,6.0,32,0.00,,,0.00,meteohub,2013-09-12 12:34:00,
2013-09-12 07:39:00,54.3,41.4,29.16,WNW,303,0.0,6.0,32,0.00,,,0.00,meteohub,2013-09-12 12:39:00,
2013-09-12 07:44:00,54.5,41.4,29.16,North,5,4.0,6.0,32,0.00,,,0.00,meteohub,2013-09-12 12:44:00,
2013-09-12 07:49:00,54.7,41.4,29.16,WNW,289,5.0,6.0,32,0.00,,,0.00,meteohub,2013-09-12 12:49:00,
2013-09-12 07:55:00,55.0,41.4,29.19,NNE,23,3.0,6.0,32,0.00,,,0.00,meteohub,2013-09-12 12:55:00,
2013-09-12 08:00:00,55.8,41.4,29.19,NW,315,4.0,6.0,32,0.00,,,0.00,meteohub,2013-09-12 13:00:00,
2013-09-12 08:05:00,56.7,41.4,29.19,North,0,3.0,6.0,32,0.00,,,0.00,meteohub,2013-09-12 13:05:00,
2013-09-12 08:10:00,57.6,41.4,29.16,NNE,12,3.0,6.0,32,0.00,,,0.00,meteohub,2013-09-12 13:10:00,
2013-09-12 08:16:00,58.6,41.4,29.16,North,350,4.0,5.0,32,0.00,,,0.00,meteohub,2013-09-12 13:16:00,
2013-09-12 08:21:00,59.5,41.4,29.16,NW,320,6.0,6.0,32,0.00,,,0.00,meteohub,2013-09-12 13:21:00,
2013-09-12 08:26:00,60.4,41.4,29.16,North,4,3.0,8.0,32,0.00,,,0.00,meteohub,2013-09-12 13:26:00,
2013-09-12 08:31:00,61.2,41.4,29.16,WNW,286,3.0,8.0,32,0.00,,,0.00,meteohub,2013-09-12 13:31:00,
2013-09-12 08:37:00,61.9,41.4,29.19,WNW,300,4.0,9.0,32,0.00,,,0.00,meteohub,2013-09-12 13:37:00,
2013-09-12 08:42:00,62.6,41.2,29.19,NW,307,4.0,9.0,32,0.00,,,0.00,meteohub,2013-09-12 13:42:00,
2013-09-12 08:47:00,63.3,41.2,29.19,WNW,288,6.0,9.0,32,0.00,,,0.00,meteohub,2013-09-12 13:47:00,
2013-09-12 08:52:00,63.9,41.2,29.19,North,0,6.0,9.0,32,0.00,,,0.00,meteohub,2013-09-12 13:52:00,
2013-09-12 08:57:00,64.0,41.2,29.19,NNE,30,3.0,8.0,32,0.00,,,0.00,meteohub,2013-09-12 13:57:00,
2013-09-12 09:02:00,64.2,41.2,29.19,NW,308,5.0,8.0,32,0.00,,,0.00,meteohub,2013-09-12 14:02:00,
2013-09-12 09:07:00,64.8,41.2,29.19,NW,325,3.0,8.0,32,0.00,,,0.00,meteohub,2013-09-12 14:07:00,
2013-09-12 09:12:00,64.9,41.2,29.19,NNE,13,5.0,8.0,32,0.00,,,0.00,meteohub,2013-09-12 14:12:00,
2013-09-12 09:17:00,64.4,41.2,29.19,ENE,60,2.0,11.0,32,0.00,,,0.00,meteohub,2013-09-12 14:17:00,
2013-09-12 09:22:00,64.4,41.0,29.19,North,357,4.0,11.0,32,0.00,,,0.00,meteohub,2013-09-12 14:22:00,
2013-09-12 09:27:00,64.8,41.0,29.19,NNE,22,4.0,11.0,32,0.00,,,0.00,meteohub,2013-09-12 14:27:00,
2013-09-12 09:32:00,65.5,41.0,29.19,North,357,2.0,11.0,32,0.00,,,0.00,meteohub,2013-09-12 14:32:00,
2013-09-12 09:37:00,66.0,41.0,29.19,North,357,0.0,9.0,32,0.00,,,0.00,meteohub,2013-09-12 14:37:00,
2013-09-12 09:42:00,66.6,41.0,29.19,North,9,3.0,9.0,32,0.00,,,0.00,meteohub,2013-09-12 14:42:00,
2013-09-12 09:48:00,66.9,41.0,29.19,NW,311,6.0,9.0,32,0.00,,,0.00,meteohub,2013-09-12 14:48:00,
2013-09-12 09:53:00,67.3,41.0,29.19,WNW,288,5.0,9.0,32,0.00,,,0.00,meteohub,2013-09-12 14:53:00,
2013-09-12 09:58:00,67.5,41.0,29.19,West,278,6.0,8.0,32,0.00,,,0.00,meteohub,2013-09-12 14:58:00,
2013-09-12 10:03:00,67.5,41.0,29.19,West,262,6.0,8.0,32,0.00,,,0.00,meteohub,2013-09-12 15:03:00,
2013-09-12 10:08:00,67.5,41.0,29.19,NNE,30,4.0,8.0,32,0.00,,,0.00,meteohub,2013-09-12 15:08:00,
2013-09-12 10:14:00,67.5,41.0,29.19,North,6,4.0,11.0,32,0.00,,,0.00,meteohub,2013-09-12 15:14:00,
2013-09-12 10:19:00,67.8,41.0,29.19,NNE,30,5.0,11.0,32,0.00,,,0.00,meteohub,2013-09-12 15:19:00,
2013-09-12 10:24:00,67.6,41.0,29.19,West,262,4.0,11.0,32,0.00,,,0.00,meteohub,2013-09-12 15:24:00,
2013-09-12 10:29:00,67.6,41.0,29.19,North,353,5.0,11.0,32,0.00,,,0.00,meteohub,2013-09-12 15:29:00,
2013-09-12 10:34:00,67.5,41.0,29.19,WNW,300,5.0,11.0,32,0.00,,,0.00,meteohub,2013-09-12 15:34:00,
2013-09-12 10:40:00,67.3,41.0,29.19,NW,321,6.0,11.0,32,0.00,,,0.00,meteohub,2013-09-12 15:40:00,
2013-09-12 10:45:00,67.1,41.0,29.19,North,2,5.0,11.0,32,0.00,,,0.00,meteohub,2013-09-12 15:45:00,
2013-09-12 10:50:00,67.1,41.0,29.19,WNW,303,8.0,15.0,32,0.00,,,0.00,meteohub,2013-09-12 15:50:00,
2013-09-12 10:55:00,66.9,41.0,29.19,North,8,4.0,15.0,32,0.00,,,0.00,meteohub,2013-09-12 15:55:00,
2013-09-12 11:00:00,66.7,41.0,29.19,NE,48,4.0,15.0,32,0.00,,,0.00,meteohub,2013-09-12 16:00:00,
2013-09-12 11:05:00,67.3,41.0,29.19,NW,314,4.0,11.0,32,0.00,,,0.00,meteohub,2013-09-12 16:05:00,
2013-09-12 11:11:00,68.0,41.0,29.19,NNE,29,3.0,9.0,32,0.00,,,0.00,meteohub,2013-09-12 16:11:00,
2013-09-12 11:16:00,68.9,40.8,29.19,WNW,298,5.0,9.0,32,0.00,,,0.00,meteohub,2013-09-12 16:16:00,
2013-09-12 11:21:00,68.9,40.8,29.19,WNW,292,5.0,10.0,32,0.00,,,0.00,meteohub,2013-09-12 16:21:00,
2013-09-12 11:26:00,68.9,40.8,29.19,NNE,15,4.0,10.0,32,0.00,,,0.00,meteohub,2013-09-12 16:26:00,
2013-09-12 11:31:00,69.1,40.8,29.19,NNW,339,8.0,10.0,32,0.00,,,0.00,meteohub,2013-09-12 16:31:00,
2013-09-12 11:36:00,68.7,40.8,29.19,NNE,27,4.0,9.0,32,0.00,,,0.00,meteohub,2013-09-12 16:36:00,
2013-09-12 11:42:00,68.7,40.8,29.19,West,268,10.0,12.0,32,0.00,,,0.00,meteohub,2013-09-12 16:42:00,
2013-09-12 11:47:00,68.9,41.0,29.19,North,357,4.0,12.0,32,0.00,,,0.00,meteohub,2013-09-12 16:47:00,
2013-09-12 11:52:00,69.1,41.0,29.19,North,357,5.0,12.0,32,0.00,,,0.00,meteohub,2013-09-12 16:52:00,
2013-09-12 11:57:00,69.3,41.0,29.19,West,273,8.0,11.0,32,0.00,,,0.00,meteohub,2013-09-12 16:57:00,
2013-09-12 12:02:00,68.9,41.0,29.19,WNW,301,6.0,12.0,32,0.00,,,0.00,meteohub,2013-09-12 17:02:00,
2013-09-12 12:07:00,68.5,41.0,29.19,WSW,251,4.0,12.0,32,0.00,,,0.00,meteohub,2013-09-12 17:07:00,
2013-09-12 12:12:00,68.2,41.0,29.19,WNW,287,8.0,12.0,32,0.00,,,0.00,meteohub,2013-09-12 17:12:00,
2013-09-12 12:17:00,68.4,41.0,29.19,West,281,8.0,12.0,32,0.00,,,0.00,meteohub,2013-09-12 17:17:00,
2013-09-12 12:22:00,68.7,41.0,29.19,NE,43,4.0,11.0,32,0.00,,,0.00,meteohub,2013-09-12 17:22:00,
2013-09-12 12:27:00,69.1,41.0,29.19,West,281,4.0,11.0,32,0.00,,,0.00,meteohub,2013-09-12 17:27:00,
2013-09-12 12:32:00,69.1,41.0,29.19,NW,306,8.0,14.0,32,0.00,,,0.00,meteohub,2013-09-12 17:32:00,
2013-09-12 12:37:00,68.7,41.0,29.19,NE,50,6.0,14.0,32,0.00,,,0.00,meteohub,2013-09-12 17:37:00,
2013-09-12 12:42:00,68.7,41.0,29.19,NW,319,8.0,14.0,32,0.00,,,0.00,meteohub,2013-09-12 17:42:00,
2013-09-12 12:47:00,68.9,41.0,29.19,West,270,6.0,11.0,32,0.00,,,0.00,meteohub,2013-09-12 17:47:00,
2013-09-12 12:52:00,69.4,41.0,29.19,ENE,62,11.0,11.0,32,0.00,,,0.00,meteohub,2013-09-12 17:52:00,
2013-09-12 12:57:00,70.0,41.0,29.19,WNW,294,6.0,12.0,32,0.00,,,0.00,meteohub,2013-09-12 17:57:00,
2013-09-12 13:02:00,70.3,41.0,29.19,NE,49,8.0,12.0,32,0.00,,,0.00,meteohub,2013-09-12 18:02:00,
2013-09-12 13:07:00,70.3,41.0,29.19,North,353,8.0,12.0,32,0.00,,,0.00,meteohub,2013-09-12 18:07:00,
2013-09-12 13:12:00,70.5,41.0,29.19,WNW,302,4.0,14.0,32,0.00,,,0.00,meteohub,2013-09-12 18:12:00,
2013-09-12 13:17:00,70.5,41.0,29.19,West,269,4.0,11.0,32,0.00,,,0.00,meteohub,2013-09-12 18:17:00,
2013-09-12 13:22:00,70.7,41.0,29.19,NNW,327,5.0,13.0,32,0.00,,,0.00,meteohub,2013-09-12 18:22:00,
2013-09-12 13:27:00,70.7,41.0,29.19,West,277,8.0,13.0,32,0.00,,,0.00,meteohub,2013-09-12 18:27:00,
2013-09-12 13:32:00,70.9,41.2,29.19,North,357,4.0,13.0,32,0.00,,,0.00,meteohub,2013-09-12 18:32:00,
2013-09-12 13:37:00,71.1,41.2,29.19,North,4,5.0,9.0,32,0.00,,,0.00,meteohub,2013-09-12 18:37:00,
2013-09-12 13:42:00,70.9,41.2,29.19,NNW,346,6.0,9.0,32,0.00,,,0.00,meteohub,2013-09-12 18:42:00,
2013-09-12 13:47:00,71.1,41.2,29.19,WNW,284,5.0,13.0,32,0.00,,,0.00,meteohub,2013-09-12 18:47:00,
2013-09-12 13:52:00,70.9,41.2,29.19,WNW,297,6.0,13.0,32,0.00,,,0.00,meteohub,2013-09-12 18:52:00,
2013-09-12 13:57:00,70.9,41.2,29.19,WNW,291,6.0,14.0,32,0.00,,,0.00,meteohub,2013-09-12 18:57:00,
2013-09-12 14:02:00,71.2,41.2,29.19,WNW,292,8.0,14.0,32,0.00,,,0.00,meteohub,2013-09-12 19:02:00,
2013-09-12 14:07:00,71.6,41.2,29.19,WNW,285,3.0,14.0,32,0.00,,,0.00,meteohub,2013-09-12 19:07:00,
2013-09-12 14:12:00,72.0,41.2,29.19,WNW,296,11.0,16.0,32,0.00,,,0.00,meteohub,2013-09-12 19:12:00,
2013-09-12 14:17:00,72.1,41.2,29.19,NW,308,5.0,16.0,32,0.00,,,0.00,meteohub,2013-09-12 19:17:00,
2013-09-12 14:22:00,72.0,41.2,29.19,West,272,3.0,16.0,32,0.00,,,0.00,meteohub,2013-09-12 19:22:00,
2013-09-12 14:27:00,71.8,41.2,29.19,North,4,12.0,12.0,32,0.00,,,0.00,meteohub,2013-09-12 19:27:00,
2013-09-12 14:32:00,72.1,41.4,29.19,NW,321,8.0,12.0,32,0.00,,,0.00,meteohub,2013-09-12 19:32:00,
2013-09-12 14:37:00,72.3,41.4,29.19,WNW,300,3.0,12.0,32,0.00,,,0.00,meteohub,2013-09-12 19:37:00,
2013-09-12 14:42:00,72.3,41.4,29.19,NNE,19,6.0,12.0,32,0.00,,,0.00,meteohub,2013-09-12 19:42:00,
2013-09-12 14:47:00,72.0,41.4,29.19,ESE,115,5.0,10.0,32,0.00,,,0.00,meteohub,2013-09-12 19:47:00,
2013-09-12 14:52:00,72.1,41.4,29.19,WNW,299,8.0,11.0,32,0.00,,,0.00,meteohub,2013-09-12 19:52:00,
2013-09-12 14:57:00,72.5,41.4,29.19,WNW,299,5.0,11.0,32,0.00,,,0.00,meteohub,2013-09-12 19:57:00,
2013-09-12 15:02:00,72.9,41.4,29.19,NNW,337,11.0,13.0,32,0.00,,,0.00,meteohub,2013-09-12 20:02:00,
2013-09-12 15:07:00,72.3,41.4,29.19,WNW,299,7.0,13.0,32,0.00,,,0.00,meteohub,2013-09-12 20:07:00,
2013-09-12 15:12:00,72.3,41.4,29.19,NNW,336,4.0,15.0,32,0.00,,,0.00,meteohub,2013-09-12 20:12:00,
2013-09-12 15:17:00,72.5,41.4,29.19,NNE,28,8.0,15.0,32,0.00,,,0.00,meteohub,2013-09-12 20:17:00,
2013-09-12 15:22:00,72.7,41.4,29.16,North,353,2.0,15.0,32,0.00,,,0.00,meteohub,2013-09-12 20:22:00,
2013-09-12 15:27:00,73.6,41.4,29.16,West,277,8.0,15.0,32,0.00,,,0.00,meteohub,2013-09-12 20:27:00,
2013-09-12 15:32:00,73.4,41.4,29.16,West,273,6.0,13.0,32,0.00,,,0.00,meteohub,2013-09-12 20:32:00,
2013-09-12 15:37:00,72.9,41.4,29.19,West,267,8.0,13.0,32,0.00,,,0.00,meteohub,2013-09-12 20:37:00,
2013-09-12 15:42:00,72.3,41.4,29.19,NNE,19,6.0,11.0,32,0.00,,,0.00,meteohub,2013-09-12 20:42:00,
2013-09-12 15:47:00,72.0,41.4,29.19,NNW,339,3.0,10.0,32,0.00,,,0.00,meteohub,2013-09-12 20:47:00,
2013-09-12 15:52:00,73.0,41.4,29.16,NNE,16,3.0,10.0,32,0.00,,,0.00,meteohub,2013-09-12 20:52:00,
2013-09-12 15:57:00,73.8,41.4,29.16,NW,312,5.0,13.0,32,0.00,,,0.00,meteohub,2013-09-12 20:57:00,
2013-09-12 16:02:00,73.8,41.4,29.16,WNW,297,13.0,13.0,32,0.00,,,0.00,meteohub,2013-09-12 21:02:00,
2013-09-12 16:07:00,73.4,40.5,29.16,NNE,21,4.0,13.0,31,0.00,,,0.00,meteohub,2013-09-12 21:07:00,
2013-09-12 16:12:00,73.6,40.5,29.16,NNW,339,6.0,17.0,31,0.00,,,0.00,meteohub,2013-09-12 21:12:00,
2013-09-12 16:17:00,74.3,40.6,29.16,North,0,9.0,15.0,31,0.00,,,0.00,meteohub,2013-09-12 21:17:00,
2013-09-12 16:22:00,74.7,40.6,29.16,NE,38,8.0,12.0,31,0.00,,,0.00,meteohub,2013-09-12 21:22:00,
2013-09-12 16:27:00,73.6,40.5,29.16,North,1,5.0,11.0,31,0.00,,,0.00,meteohub,2013-09-12 21:27:00,
2013-09-12 16:32:00,72.3,40.5,29.16,NNW,327,8.0,11.0,31,0.00,,,0.00,meteohub,2013-09-12 21:32:00,
2013-09-12 16:37:00,71.6,40.5,29.16,NW,311,11.0,17.0,31,0.00,,,0.00,meteohub,2013-09-12 21:37:00,
2013-09-12 16:42:00,71.4,40.5,29.16,ENE,70,6.0,17.0,31,0.00,,,0.00,meteohub,2013-09-12 21:42:00,
2013-09-12 16:47:00,71.4,40.5,29.16,North,353,3.0,17.0,31,0.00,,,0.00,meteohub,2013-09-12 21:47:00,
2013-09-12 16:52:00,71.4,40.5,29.16,ENE,68,5.0,13.0,31,0.00,,,0.00,meteohub,2013-09-12 21:52:00,
2013-09-12 16:57:00,70.9,40.5,29.16,NW,306,5.0,8.0,31,0.00,,,0.00,meteohub,2013-09-12 21:57:00,
2013-09-12 17:02:00,70.5,40.5,29.16,WNW,293,4.0,11.0,31,0.00,,,0.00,meteohub,2013-09-12 22:02:00,
2013-09-12 17:07:00,70.9,40.5,29.16,North,2,11.0,11.0,31,0.00,,,0.00,meteohub,2013-09-12 22:07:00,
2013-09-12 17:12:00,71.2,40.5,29.16,North,2,6.0,12.0,31,0.00,,,0.00,meteohub,2013-09-12 22:12:00,
2013-09-12 17:17:00,71.1,40.3,29.16,WNW,286,4.0,12.0,31,0.00,,,0.00,meteohub,2013-09-12 22:17:00,
2013-09-12 17:22:00,70.7,40.3,29.16,West,266,10.0,12.0,31,0.00,,,0.00,meteohub,2013-09-12 22:22:00,
2013-09-12 17:27:00,70.5,39.4,29.16,North,5,5.0,15.0,30,0.00,,,0.00,meteohub,2013-09-12 22:27:00,
2013-09-12 17:32:00,70.3,40.3,29.16,West,270,5.0,15.0,31,0.00,,,0.00,meteohub,2013-09-12 22:32:00,
2013-09-12 17:37:00,69.8,39.4,29.16,WNW,303,8.0,15.0,30,0.00,,,0.00,meteohub,2013-09-12 22:37:00,
2013-09-12 17:42:00,69.8,40.3,29.16,West,271,8.0,13.0,31,0.00,,,0.00,meteohub,2013-09-12 22:42:00,
2013-09-12 17:47:00,70.0,40.3,29.16,NE,34,3.0,13.0,31,0.00,,,0.00,meteohub,2013-09-12 22:47:00,
2013-09-12 17:52:00,70.0,40.1,29.16,NE,42,4.0,12.0,31,0.00,,,0.00,meteohub,2013-09-12 22:52:00,
2013-09-12 17:57:00,69.8,40.1,29.16,NE,40,4.0,12.0,31,0.00,,,0.00,meteohub,2013-09-12 22:57:00,
2013-09-12 18:02:00,69.4,40.1,29.16,North,353,2.0,12.0,31,0.00,,,0.00,meteohub,2013-09-12 23:02:00,
2013-09-12 18:07:00,69.3,39.2,29.16,West,270,5.0,12.0,30,0.00,,,0.00,meteohub,2013-09-12 23:07:00,
2013-09-12 18:12:00,69.1,39.9,29.16,West,264,11.0,11.0,31,0.00,,,0.00,meteohub,2013-09-12 23:12:00,
2013-09-12 18:17:00,68.9,39.2,29.16,West,278,7.0,11.0,30,0.00,,,0.00,meteohub,2013-09-12 23:17:00,
2013-09-12 18:22:00,68.7,39.9,29.16,North,0,3.0,11.0,31,0.00,,,0.00,meteohub,2013-09-12 23:22:00,
2013-09-12 18:27:00,68.5,39.9,29.16,NE,44,4.0,11.0,31,0.00,,,0.00,meteohub,2013-09-12 23:27:00,
2013-09-12 18:32:00,68.5,39.9,29.16,North,4,3.0,8.0,31,0.00,,,0.00,meteohub,2013-09-12 23:32:00,
2013-09-12 18:38:00,68.4,39.9,29.19,NNE,32,4.0,8.0,31,0.00,,,0.00,meteohub,2013-09-12 23:38:00,
2013-09-12 18:43:00,68.2,39.9,29.19,NE,38,6.0,8.0,31,0.00,,,0.00,meteohub,2013-09-12 23:43:00,
2013-09-12 18:48:00,67.8,39.7,29.19,NW,314,5.0,11.0,31,0.00,,,0.00,meteohub,2013-09-12 23:48:00,
2013-09-12 18:53:00,67.5,39.7,29.19,NW,317,3.0,11.0,31,0.00,,,0.00,meteohub,2013-09-12 23:53:00,
2013-09-12 18:58:00,67.1,39.7,29.19,North,11,6.0,11.0,31,0.00,,,0.00,meteohub,2013-09-12 23:58:00,
2013-09-12 19:04:00,66.7,39.6,29.19,NNE,17,6.0,9.0,31,0.00,,,0.00,meteohub,2013-09-13 00:04:00,
2013-09-12 19:09:00,66.6,39.6,29.19,WSW,253,4.0,8.0,31,0.00,,,0.00,meteohub,2013-09-13 00:09:00,
2013-09-12 19:14:00,66.2,39.6,29.19,West,267,3.0,8.0,31,0.00,,,0.00,meteohub,2013-09-13 00:14:00,
2013-09-12 19:19:00,66.0,39.6,29.19,NE,34,3.0,9.0,31,0.00,,,0.00,meteohub,2013-09-13 00:19:00,
2013-09-12 19:24:00,65.7,39.6,29.19,NNE,12,4.0,9.0,31,0.00,,,0.00,meteohub,2013-09-13 00:24:00,
2013-09-12 19:30:00,65.3,39.6,29.19,NNW,343,0.0,9.0,31,0.00,,,0.00,meteohub,2013-09-13 00:30:00,
2013-09-12 19:35:00,65.1,39.6,29.19,NE,52,3.0,8.0,31,0.00,,,0.00,meteohub,2013-09-13 00:35:00,
2013-09-12 19:40:00,64.8,39.6,29.19,North,0,0.0,6.0,31,0.00,,,0.00,meteohub,2013-09-13 00:40:00,
2013-09-12 19:45:00,64.4,39.6,29.19,NNE,27,3.0,6.0,31,0.00,,,0.00,meteohub,2013-09-13 00:45:00,
2013-09-12 19:50:00,64.0,39.6,29.19,NNE,28,3.0,5.0,31,0.00,,,0.00,meteohub,2013-09-13 00:50:00,
2013-09-12 19:56:00,63.7,39.6,29.19,NE,40,3.0,5.0,31,0.00,,,0.00,meteohub,2013-09-13 00:56:00,
2013-09-12 20:01:00,63.3,39.6,29.19,North,0,3.0,5.0,31,0.00,,,0.00,meteohub,2013-09-13 01:01:00,
2013-09-12 20:06:00,63.1,39.6,29.19,NNW,346,0.0,5.0,31,0.00,,,0.00,meteohub,2013-09-13 01:06:00,
2013-09-12 20:11:00,62.6,39.6,29.19,NNW,335,0.0,4.0,31,0.00,,,0.00,meteohub,2013-09-13 01:11:00,
2013-09-12 20:17:00,62.2,39.7,29.19,North,6,0.0,4.0,31,0.00,,,0.00,meteohub,2013-09-13 01:17:00,
2013-09-12 20:22:00,61.9,39.7,29.19,NE,44,5.0,5.0,31,0.00,,,0.00,meteohub,2013-09-13 01:22:00,
2013-09-12 20:27:00,61.5,39.7,29.19,NNW,328,0.0,5.0,31,0.00,,,0.00,meteohub,2013-09-13 01:27:00,
2013-09-12 20:32:00,61.3,39.7,29.19,North,357,0.0,5.0,31,0.00,,,0.00,meteohub,2013-09-13 01:32:00,
2013-09-12 20:37:00,61.0,39.7,29.22,NNE,14,0.0,5.0,31,0.00,,,0.00,meteohub,2013-09-13 01:37:00,
2013-09-12 20:42:00,60.8,39.7,29.22,North,353,2.0,4.0,31,0.00,,,0.00,meteohub,2013-09-13 01:42:00,
2013-09-12 20:47:00,60.8,39.7,29.22,North,357,2.0,4.0,31,0.00,,,0.00,meteohub,2013-09-13 01:47:00,
2013-09-12 20:52:00,60.6,39.7,29.22,NW,325,0.0,4.0,31,0.00,,,0.00,meteohub,2013-09-13 01:52:00,
2013-09-12 20:57:00,60.6,39.7,29.22,NNW,335,3.0,5.0,31,0.00,,,0.00,meteohub,2013-09-13 01:57:00,
2013-09-12 21:02:00,60.4,39.7,29.22,NNE,18,2.0,5.0,31,0.00,,,0.00,meteohub,2013-09-13 02:02:00,
2013-09-12 21:07:00,60.1,39.7,29.22,NW,305,0.0,5.0,31,0.00,,,0.00,meteohub,2013-09-13 02:07:00,
2013-09-12 21:13:00,59.7,39.7,29.22,West,277,0.0,3.0,31,0.00,,,0.00,meteohub,2013-09-13 02:13:00,
2013-09-12 21:18:00,59.4,39.7,29.22,NE,37,0.0,3.0,31,0.00,,,0.00,meteohub,2013-09-13 02:18:00,
2013-09-12 21:23:00,58.8,39.7,29.22,NE,37,0.0,0.0,31,0.00,,,0.00,meteohub,2013-09-13 02:23:00,
2013-09-12 21:28:00,58.3,39.7,29.22,North,5,0.0,0.0,31,0.00,,,0.00,meteohub,2013-09-13 02:28:00,
2013-09-12 21:33:00,57.9,39.7,29.22,NW,319,0.0,0.0,31,0.00,,,0.00,meteohub,2013-09-13 02:33:00,
2013-09-12 21:39:00,57.6,39.7,29.22,West,271,0.0,0.0,31,0.00,,,0.00,meteohub,2013-09-13 02:39:00,
2013-09-12 21:44:00,57.2,39.7,29.22,WNW,297,0.0,0.0,31,0.00,,,0.00,meteohub,2013-09-13 02:44:00,
2013-09-12 21:49:00,56.8,39.7,29.22,WNW,297,0.0,0.0,31,0.00,,,0.00,meteohub,2013-09-13 02:49:00,
2013-09-12 21:54:00,56.7,39.7,29.22,WNW,298,0.0,0.0,31,0.00,,,0.00,meteohub,2013-09-13 02:54:00,
2013-09-12 21:59:00,56.5,39.7,29.22,WNW,285,0.0,0.0,31,0.00,,,0.00,meteohub,2013-09-13 02:59:00,
2013-09-12 22:05:00,56.3,39.7,29.22,NNW,341,0.0,0.0,31,0.00,,,0.00,meteohub,2013-09-13 03:05:00,
2013-09-12 22:10:00,56.1,39.7,29.22,North,357,0.0,0.0,31,0.00,,,0.00,meteohub,2013-09-13 03:10:00,
2013-09-12 22:15:00,55.9,39.7,29.22,North,357,0.0,0.0,31,0.00,,,0.00,meteohub,2013-09-13 03:15:00,
2013-09-12 22:20:00,55.8,39.7,29.22,North,357,0.0,0.0,31,0.00,,,0.00,meteohub,2013-09-13 03:20:00,
2013-09-12 22:25:00,55.6,40.5,29.22,North,357,0.0,0.0,32,0.00,,,0.00,meteohub,2013-09-13 03:25:00,
2013-09-12 22:31:00,55.4,40.5,29.22,NNW,340,0.0,0.0,32,0.00,,,0.00,meteohub,2013-09-13 03:31:00,
2013-09-12 22:36:00,55.0,40.5,29.22,North,353,0.0,0.0,32,0.00,,,0.00,meteohub,2013-09-13 03:36:00,
2013-09-12 22:41:00,54.9,40.5,29.22,NNE,27,0.0,0.0,32,0.00,,,0.00,meteohub,2013-09-13 03:41:00,
2013-09-12 22:46:00,54.7,40.5,29.22,North,10,0.0,0.0,32,0.00,,,0.00,meteohub,2013-09-13 03:46:00,
2013-09-12 22:51:00,54.5,40.5,29.22,NE,35,0.0,3.0,32,0.00,,,0.00,meteohub,2013-09-13 03:51:00,
2013-09-12 22:57:00,54.3,40.5,29.22,NE,40,0.0,3.0,32,0.00,,,0.00,meteohub,2013-09-13 03:57:00,
2013-09-12 23:01:00,54.1,40.3,29.22,NE,40,0.0,3.0,32,0.00,,,0.00,meteohub,2013-09-13 04:01:00,
2013-09-12 23:02:00,54.0,40.3,29.22,NE,39,0.0,3.0,32,0.00,,,0.00,meteohub,2013-09-13 04:02:00,
2013-09-12 23:07:00,53.6,40.3,29.22,NE,40,0.0,0.0,32,0.00,,,0.00,meteohub,2013-09-13 04:07:00,
2013-09-12 23:09:00,53.6,40.3,29.22,NE,39,0.0,0.0,32,0.00,,,0.00,meteohub,2013-09-13 04:09:00,
2013-09-12 23:14:00,53.2,40.3,29.22,NE,40,0.0,0.0,32,0.00,,,0.00,meteohub,2013-09-13 04:14:00,
2013-09-12 23:19:00,52.9,40.3,29.22,NE,40,0.0,0.0,32,0.00,,,0.00,meteohub,2013-09-13 04:19:00,
2013-09-12 23:25:00,52.7,40.3,29.22,NE,40,0.0,0.0,32,0.00,,,0.00,meteohub,2013-09-13 04:25:00,
2013-09-12 23:30:00,52.3,40.1,29.22,NE,40,0.0,0.0,32,0.00,,,0.00,meteohub,2013-09-13 04:30:00,
2013-09-12 23:35:00,52.2,40.1,29.22,North,1,0.0,0.0,32,0.00,,,0.00,meteohub,2013-09-13 04:35:00,
2013-09-12 23:40:00,52.2,40.1,29.22,North,0,0.0,0.0,32,0.00,,,0.00,meteohub,2013-09-13 04:40:00,
2013-09-12 23:46:00,52.0,40.1,29.22,NNW,328,0.0,0.0,32,0.00,,,0.00,meteohub,2013-09-13 04:46:00,
2013-09-12 23:51:00,52.0,40.1,29.22,NNW,328,0.0,0.0,32,0.00,,,0.00,meteohub,2013-09-13 04:51:00,
2013-09-12 23:56:00,52.0,40.1,29.22,NNW,328,0.0,0.0,32,0.00,,,0.00,meteohub,2013-09-13 04:56:00,